[[{"header":{"parameterUnit":"m.s-1","parameterCategory":1,"la1":30.2991,"la2":30.254,"lo1":-89.0895,"lo2":-89.0444,"dy":0.0017,"dx":0.0017,"nx":28,"ny":28,"refTime":"2023-11-02T03:00:00:Z","depth":0,"parameterNumber":2,"parameterNumberName":"U-component_of_WINDS"},"data":[0,0,0,0,0,0,0,0,0,0,0,0,0,0,0,0,0,0,0,0,0,0,0,0,0,0,0,0,0,0,0,0,0,0,0,0,0,0,0,0,0,0,0,0,0,0,0,0,0,0,0,0,0,0,0,0,0,0,-3.054,-3.0541,0,-3.0648,-3.065,-3.0651,-3.0516,-3.0511,-3.0506,-3.0502,-3.0616,-3.0624,-3.0631,0,0,0,0,0,0,0,0,0,0,0,0,0,-3.022,-3.0226,-3.054,-3.0541,-3.0543,-3.0648,-3.065,-3.0651,-3.0517,-3.0511,-3.0505,-3.0499,-3.0614,-3.0623,-3.0632,0,0,0,0,0,0,0,0,0,0,0,0,0,-3.0347,-3.0228,-3.054,-3.0489,-3.0485,-3.0648,-3.065,-3.0651,-3.0518,-3.0511,-3.0503,-3.0497,-3.0611,-3.0622,-3.0633,-3.0853,0,0,-3.0668,-3.0673,0,0,0,0,0,0,0,0,-3.034,-3.0359,-3.0495,-3.0492,-3.0489,-3.0561,-3.0578,-3.0719,-3.052,-3.0506,-3.0502,-3.0493,-3.0604,-3.0616,-3.0652,-3.0858,-3.0863,-3.0669,-3.0676,-3.0681,-3.0684,0,0,0,0,0,0,0,-3.0331,-3.0353,-3.0583,-3.0497,-3.0493,-3.0461,-3.0471,-3.0604,-3.0595,-3.0507,-3.0497,-3.0511,-3.0601,-3.0642,-3.0654,-3.0864,-3.0669,-3.0679,-3.0686,-3.0691,-3.1256,-3.1264,0,0,0,0,0,0,-3.0328,-3.0347,-3.0579,-3.0586,-3.0394,-3.0473,-3.0484,-3.0545,-3.0594,-3.0594,-3.0518,-3.0505,-3.0626,-3.0641,-3.0658,-3.092,-3.0681,-3.0692,-3.0698,-3.1248,-3.1258,-3.1267,0,0,0,0,0,0,-3.0321,-3.035,-3.0575,-3.0464,-3.049,-3.0486,-3.0557,-3.0552,-3.0592,-3.0602,-3.06,-3.0561,-3.062,-3.0641,-3.0805,-3.0922,-3.0697,-3.0707,-3.1239,-3.1251,-3.1263,-3.1445,0,0,0,0,0,0,-3.0313,-3.0348,-3.0432,-3.0467,-3.0497,-3.0721,-3.0564,-3.0559,-3.0612,-3.0596,-3.0642,-3.0642,-3.0616,-3.0789,-3.0817,-3.0934,-3.0716,-3.1228,-3.1244,-3.1259,-3.1429,-3.1462,-3.1491,0,0,0,0,0,-3.0302,-3.0479,-3.0437,-3.0465,-3.06,-3.0728,-3.0745,-3.071,-3.0622,-3.0706,-3.0712,-3.0641,-3.0903,-3.0807,-3.0837,-3.0959,-3.1221,-3.124,-3.1258,-3.1415,-3.1456,-3.149,0,0,0,0,0,0,-3.046,-3.0483,-3.0436,-3.063,-3.0678,-3.0705,-3.081,-3.0754,-3.083,-3.0812,-3.0766,-3.0777,-3.0953,-3.0971,-3.0863,-3.1174,-3.1048,-3.1073,-3.1157,-3.1196,-3.1226,-3.122,-3.0726,0,0,0,0,0,-3.0516,-3.0617,-3.0632,-3.0802,-3.0828,-3.0815,-3.087,-3.0838,-3.0887,-3.0907,-3.0925,-3.0976,-3.1069,-3.1132,-3.1219,-3.1429,-3.1438,-3.1527,-3.1558,-3.1583,-3.1608,-3.1722,-3.1763,-3.1327,-3.1327,-3.1327,0,0,-3.0636,-3.0661,-3.0728,-3.0834,-3.0868,-3.0975,-3.0834,-3.0952,-3.1032,-3.0925,-3.1082,-3.1096,-3.115,-3.1338,-3.1422,-3.1359,-3.1729,-3.1607,-3.1627,-3.1638,-3.1745,-3.1786,-3.1823,-3.134,-3.1337,-3.1335,0,0,-3.091,-3.0937,-3.1083,-3.1119,-3.1171,-3.116,-3.1195,-3.1231,-3.1237,-3.1392,-3.1315,-3.1408,-3.157,-3.1611,-3.1654,-3.1941,-3.188,-3.197,-3.2134,-3.2245,-3.228,-3.231,-3.2416,-3.2454,-3.1992,-3.1993,-3.1993,0,-3.1053,-3.121,-3.1165,-3.129,-3.1339,-3.1245,-3.1393,-3.143,-3.1508,-3.1545,-3.1472,-3.1674,-3.1703,-3.1901,-3.1971,-3.2007,-3.2047,-3.1967,-3.2278,-3.2308,-3.2336,-3.2436,-3.2475,-3.2004,-3.2003,-3.2002,-3.2001,0,-3.1385,-3.1495,-3.1605,-3.1683,-3.1744,-3.188,-3.1856,-3.1924,-3.1886,-3.1884,-3.2044,-3.2074,-3.2166,-3.2209,-3.2174,-3.2403,-3.2363,-3.2285,-3.2158,-3.2389,-3.2483,-3.252,-3.202,-3.2016,-3.2012,-3.201,0,0,-3.1766,-3.1814,-3.1856,-3.189,-3.1939,-3.2024,-3.2155,-3.2243,-3.2304,-3.2359,-3.247,-3.2608,-3.2536,-3.2584,-3.2552,-3.2649,-3.2878,-3.2559,-3.256,-3.2621,-3.3135,-3.3198,-3.3243,-3.2835,-3.2842,-3.2848,-3.3132,0,-3.2043,-3.2269,-3.2232,-3.2452,-3.2554,-3.2464,-3.2578,-3.2621,-3.2622,-3.2709,-3.2709,-3.2809,-3.2704,-3.2733,-3.2825,-3.2831,-3.2982,-3.2809,-3.2941,-3.2946,-3.2936,-3.3291,-3.3357,-3.3624,-3.3168,-3.3174,-3.3179,0,-3.2397,-3.2466,-3.2697,-3.2729,-3.2771,-3.2874,-3.2953,-3.3036,-3.3083,-3.3076,-3.3129,-3.3078,-3.321,-3.3076,-3.3258,-3.3142,-3.3192,-3.3203,-3.3212,-3.3228,-3.3081,-3.332,-3.3708,-3.3751,-3.3235,-3.3231,-3.3227,0,-3.2658,-3.2806,-3.2964,-3.2995,-3.3037,-3.3112,-3.3133,-3.3172,-3.3227,-3.3295,-3.3331,-3.3414,-3.346,-3.3526,-3.3499,-3.3404,-3.3687,-3.3551,-3.3688,-3.369,-3.3757,-3.3754,-3.4164,-3.3781,-3.3781,-3.378,-3.3779,0,-3.2974,-3.312,-3.3082,-3.318,-3.334,-3.3294,-3.3454,-3.3464,-3.3499,-3.3598,-3.3523,-3.3618,-3.3574,-3.3666,-3.3645,-3.3801,-3.3821,-3.3821,-3.3815,-3.3831,-3.3832,-3.3868,-3.385,-3.3791,-3.3788,-3.3786,-3.3784,0,-3.3295,-3.3274,-3.3441,-3.3465,-3.3474,-3.3592,-3.3614,-3.3705,-3.3698,-3.3824,-3.3851,-3.3841,-3.3944,-3.3922,-3.4036,-3.4022,-3.4219,-3.4187,-3.4204,-3.4198,-3.4339,-3.4328,-3.479,-3.4849,-3.4424,-3.4428,-3.4432,0,-3.3501,-3.3611,-3.3646,-3.3706,-3.3733,-3.383,-3.3886,-3.3844,-3.3906,-3.3966,-3.4051,-3.4147,-3.4223,-3.4393,-3.4397,-3.4484,-3.4456,-3.4612,-3.4469,-3.4482,-3.4464,-3.446,-3.4472,-3.4643,-3.4647,-3.4651,-3.4654,0,-3.387,-3.3854,-3.3937,-3.4017,-3.4086,-3.4147,-3.4201,-3.4254,-3.4216,-3.4289,-3.4394,-3.4452,-3.4568,-3.4666,-3.4746,-3.4767,-3.4707,-3.4698,-3.4735,-3.4756,-3.4763,-3.4765,-3.4287,-3.4689,-3.4686,-3.4683,-3.4681,-3.468,-3.4143,-3.4237,-3.4276,-3.4372,-3.4407,-3.4459,-3.4547,-3.455,-3.4636,-3.4727,-3.4695,-3.4816,-3.4858,-3.4959,-3.499,-3.5084,-3.5026,-3.5079,-3.5093,-3.5108,-3.5128,-3.4743,-3.5098,-3.5097,-3.5096,-3.5095,-3.5094,0,-3.4512,-3.4532,-3.462,-3.4697,-3.4772,-3.4704,-3.476,-3.4828,-3.4934,-3.4978,-3.5054,-3.5174,-3.5268,-3.5278,-3.5366,-3.544,-3.5414,-3.5465,-3.5462,-3.5469,-3.5172,-3.5134,-3.5485,-3.5484,-3.5484,-3.5484,-3.5484,-3.5484,-3.4713,-3.487,-3.4858,-3.5031,-3.505,-3.5167,-3.5205,-3.5253,-3.5288,-3.5426,-3.5503,-3.5507,-3.5538,-3.5628,-3.5712,-3.5712,-3.575,-3.5813,-3.5804,-3.5528,-3.5489,-3.5452,-3.5416,-3.582,-3.5821,-3.6092,-3.6095,-3.6097]},{"header":{"parameterUnit":"m.s-1","parameterCategory":1,"la1":30.2991,"la2":30.254,"lo1":-89.0895,"lo2":-89.0444,"dy":0.0017,"dx":0.0017,"nx":28,"ny":28,"refTime":"2023-11-02T03:00:00:Z","depth":0,"parameterNumber":3,"parameterNumberName":"V-component_of_WINDS"},"data":[0,0,0,0,0,0,0,0,0,0,0,0,0,0,0,0,0,0,0,0,0,0,0,0,0,0,0,0,0,0,0,0,0,0,0,0,0,0,0,0,0,0,0,0,0,0,0,0,0,0,0,0,0,0,0,0,0,0,-5.8567,-5.8568,0,-5.8653,-5.8654,-5.8655,-5.8565,-5.8561,-5.8558,-5.8554,-5.8638,-5.8643,-5.8648,0,0,0,0,0,0,0,0,0,0,0,0,0,-5.8315,-5.832,-5.8566,-5.8568,-5.8569,-5.8653,-5.8654,-5.8655,-5.8565,-5.8561,-5.8557,-5.8553,-5.8636,-5.8642,-5.8649,0,0,0,0,0,0,0,0,0,0,0,0,0,-5.8415,-5.8322,-5.8566,-5.8534,-5.8532,-5.8653,-5.8654,-5.8656,-5.8566,-5.8561,-5.8556,-5.8551,-5.8634,-5.8642,-5.865,-5.8805,0,0,-5.8675,-5.8678,0,0,0,0,0,0,0,0,-5.841,-5.8424,-5.8538,-5.8536,-5.8534,-5.8593,-5.8596,-5.8706,-5.8567,-5.8553,-5.8554,-5.8548,-5.8627,-5.8635,-5.8663,-5.8809,-5.8813,-5.8675,-5.868,-5.8684,-5.8686,0,0,0,0,0,0,0,-5.8403,-5.842,-5.8601,-5.8539,-5.8537,-5.8512,-5.8521,-5.8616,-5.8618,-5.8554,-5.8547,-5.8559,-5.8624,-5.8655,-5.8664,-5.8814,-5.8675,-5.8682,-5.8688,-5.8691,-5.9088,-5.9094,0,0,0,0,0,0,-5.84,-5.8415,-5.8598,-5.8603,-5.8458,-5.8521,-5.8531,-5.8579,-5.8617,-5.8617,-5.8564,-5.8555,-5.8643,-5.8654,-5.8666,-5.8849,-5.8684,-5.8692,-5.8696,-5.9083,-5.909,-5.9096,0,0,0,0,0,0,-5.8395,-5.8418,-5.8594,-5.8507,-5.8528,-5.8531,-5.8586,-5.8584,-5.8614,-5.8624,-5.8623,-5.8595,-5.864,-5.8655,-5.8771,-5.885,-5.8695,-5.8703,-5.9076,-5.9085,-5.9093,-5.9216,0,0,0,0,0,0,-5.8388,-5.8416,-5.8477,-5.851,-5.8533,-5.87,-5.8591,-5.8589,-5.8629,-5.8618,-5.8653,-5.8654,-5.8637,-5.8759,-5.8779,-5.8859,-5.8709,-5.9069,-5.908,-5.909,-5.9205,-5.9228,-5.9247,0,0,0,0,0,-5.838,-5.8508,-5.8481,-5.8504,-5.861,-5.8705,-5.8718,-5.8698,-5.8636,-5.8696,-5.8702,-5.8653,-5.8839,-5.8772,-5.8793,-5.8877,-5.9064,-5.9077,-5.9089,-5.9195,-5.9223,-5.9247,0,0,0,0,0,0,-5.8484,-5.8512,-5.8482,-5.8625,-5.8664,-5.869,-5.8765,-5.8728,-5.8783,-5.8771,-5.8741,-5.8749,-5.8872,-5.8886,-5.8811,-5.9028,-5.8941,-5.8958,-5.9014,-5.9041,-5.9061,-5.9055,-5.8716,0,0,0,0,0,-5.8524,-5.8601,-5.862,-5.8744,-5.8765,-5.8762,-5.8803,-5.8783,-5.8821,-5.8836,-5.8851,-5.8888,-5.8954,-5.8998,-5.906,-5.9207,-5.9211,-5.9274,-5.9295,-5.9313,-5.9328,-5.9403,-5.9431,-5.9137,-5.9137,-5.9137,0,0,-5.8606,-5.8631,-5.8681,-5.8766,-5.8793,-5.8871,-5.8776,-5.8863,-5.8919,-5.8849,-5.8959,-5.8971,-5.901,-5.9141,-5.92,-5.9157,-5.941,-5.9329,-5.9343,-5.9348,-5.9419,-5.9447,-5.9472,-5.9146,-5.9144,-5.9143,0,0,-5.8796,-5.8824,-5.8929,-5.8959,-5.9002,-5.8998,-5.9024,-5.9055,-5.9061,-5.9172,-5.9119,-5.9185,-5.9301,-5.9329,-5.9359,-5.9558,-5.9514,-5.9579,-5.9689,-5.9763,-5.9786,-5.9806,-5.9875,-5.99,-5.9594,-5.9595,-5.9595,0,-5.8892,-5.901,-5.8987,-5.9078,-5.9115,-5.9056,-5.916,-5.9189,-5.925,-5.9276,-5.9227,-5.9369,-5.9391,-5.9527,-5.9576,-5.9603,-5.9628,-5.9574,-5.9785,-5.9805,-5.9824,-5.9889,-5.9915,-5.9602,-5.9601,-5.96,-5.96,0,-5.9125,-5.9207,-5.9286,-5.9348,-5.9394,-5.9491,-5.948,-5.953,-5.9506,-5.9507,-5.9618,-5.9643,-5.9707,-5.9738,-5.9716,-5.987,-5.9842,-5.979,-5.9702,-5.986,-5.992,-5.9945,-5.9613,-5.961,-5.9608,-5.9606,0,0,-5.9383,-5.943,-5.9459,-5.9485,-5.9528,-5.9589,-5.9682,-5.9747,-5.9788,-5.9831,-5.9906,-6.0005,-5.9956,-5.999,-5.997,-6.0036,-6.0188,-5.9975,-5.9975,-6.0012,-6.0357,-6.0395,-6.0424,-6.016,-6.0164,-6.0168,-6.0353,0,-5.9572,-5.9736,-5.9717,-5.9872,-5.9946,-5.989,-5.997,-6.0003,-6.0006,-6.0067,-6.0069,-6.0139,-6.0071,-6.009,-6.0152,-6.0157,-6.0257,-6.0143,-6.0226,-6.023,-6.0217,-6.0456,-6.0497,-6.0671,-6.0377,-6.0381,-6.0384,0,-5.9815,-5.9868,-6.0031,-6.006,-6.009,-6.0163,-6.0219,-6.0279,-6.0314,-6.0311,-6.0349,-6.0317,-6.0407,-6.0318,-6.044,-6.0363,-6.0396,-6.0403,-6.0409,-6.0414,-6.0315,-6.0466,-6.0726,-6.0751,-6.0421,-6.0418,-6.0415,0,-5.9985,-6.0096,-6.0208,-6.0232,-6.0269,-6.0321,-6.0338,-6.0369,-6.0408,-6.0456,-6.0481,-6.0539,-6.057,-6.0614,-6.0597,-6.0535,-6.0722,-6.0632,-6.0719,-6.072,-6.076,-6.0758,-6.1027,-6.0785,-6.0784,-6.0784,-6.0783,0,-6.0197,-6.0298,-6.0284,-6.0352,-6.0463,-6.0439,-6.0548,-6.0558,-6.0585,-6.0652,-6.0607,-6.067,-6.0645,-6.0706,-6.0693,-6.0794,-6.0809,-6.0807,-6.0802,-6.081,-6.081,-6.083,-6.0817,-6.0791,-6.0789,-6.0788,-6.0787,0,-6.0405,-6.04,-6.0516,-6.0542,-6.0551,-6.0631,-6.0651,-6.0714,-6.0713,-6.0798,-6.0816,-6.0814,-6.0883,-6.0871,-6.0947,-6.0938,-6.1064,-6.1045,-6.1053,-6.1048,-6.1135,-6.1127,-6.1425,-6.1462,-6.1198,-6.1201,-6.1203,0,-6.054,-6.0616,-6.065,-6.0693,-6.0714,-6.0783,-6.0823,-6.0801,-6.0844,-6.0889,-6.0945,-6.1011,-6.1062,-6.1174,-6.1178,-6.1235,-6.1216,-6.1317,-6.1224,-6.1229,-6.1215,-6.121,-6.1216,-6.1335,-6.1338,-6.134,-6.1342,0,-6.078,-6.0773,-6.0833,-6.0892,-6.0941,-6.0986,-6.1026,-6.1063,-6.1045,-6.1095,-6.1165,-6.1205,-6.1283,-6.1347,-6.14,-6.1415,-6.1375,-6.1371,-6.1394,-6.1403,-6.1403,-6.1402,-6.1101,-6.1364,-6.1362,-6.136,-6.1359,-6.1358,-6.0953,-6.1018,-6.1051,-6.1119,-6.1147,-6.1186,-6.1245,-6.1252,-6.1311,-6.1374,-6.1357,-6.1436,-6.1466,-6.1534,-6.1555,-6.1615,-6.1577,-6.1611,-6.1619,-6.1627,-6.1637,-6.1395,-6.1625,-6.1624,-6.1623,-6.1623,-6.1622,0,-6.1189,-6.1207,-6.127,-6.1328,-6.1381,-6.134,-6.1382,-6.1428,-6.1499,-6.1532,-6.1583,-6.1663,-6.1725,-6.1733,-6.1791,-6.1837,-6.182,-6.1853,-6.1848,-6.1852,-6.1668,-6.1642,-6.1865,-6.1865,-6.1865,-6.1865,-6.1865,-6.1865,-6.1317,-6.1424,-6.1421,-6.1539,-6.1556,-6.1635,-6.1662,-6.1696,-6.1721,-6.1813,-6.1865,-6.1871,-6.1892,-6.1951,-6.2005,-6.2005,-6.2028,-6.2068,-6.2061,-6.1889,-6.1865,-6.1842,-6.1817,-6.2073,-6.2073,-6.2239,-6.224,-6.2241]}]]